Theta_e
321 320 317 316 313 312 312 311 310 309 309 309 309 309 309 309 308 307 306 306 306 305 305 305 305 305 305 304 305 305 304 304 304 304 304 304 304 306 307 306 307 309 309
320 318 316 314 313 312 312 311 310 309 309 310 310 310 310 310 309 309 306 306 306 305 305 305 305 304 304 304 304 304 303 304 304 304 303 304 304 305 307 308 305 304 306
319 318 315 314 313 312 311 311 310 310 309 310 310 310 309 308 307 307 307 307 306 305 305 304 304 304 303 303 303 303 303 302 302 302 303 303 304 303 303 303 304 304 305
319 317 315 314 313 312 311 311 310 310 310 310 309 309 310 310 311 310 309 308 306 305 304 304 303 303 303 303 303 302 302 301 301 301 302 302 302 302 302 302 302 303 303
319 317 315 314 313 312 312 311 310 310 309 309 309 309 310 311 310 309 308 306 305 305 304 304 303 303 303 302 301 301 301 300 300 300 300 301 301 301 301 302 302 302 302
317 317 315 314 313 312 312 311 310 309 309 309 309 309 309 310 310 309 307 306 305 305 304 303 303 302 301 301 300 300 300 300 300 299 299 299 300 300 300 301 301 301 301
315 315 313 312 311 311 311 310 309 309 309 309 309 309 309 309 308 306 305 305 304 304 303 303 302 301 300 299 299 298 298 298 298 298 298 298 299 299 299 299 300 300 300
314 314 314 313 312 311 311 310 310 309 309 309 309 308 306 305 305 304 304 303 303 303 302 301 300 299 299 298 298 297 297 297 297 298 298 298 298 299 299 299 299 300 300
312 311 311 310 310 310 310 309 309 309 309 308 306 305 304 304 303 303 303 302 302 301 300 299 298 298 297 297 297 297 297 297 298 298 298 298 299 299 299 299 299 299 299
311 310 309 309 308 307 307 306 306 306 306 305 304 304 303 303 302 302 302 301 300 300 299 297 297 297 296 296 296 297 297 298 298 298 298 298 298 298 298 298 297 297 297
310 309 308 308 307 307 306 305 305 304 304 303 303 303 303 302 302 301 301 300 299 298 297 297 296 296 296 296 296 297 298 298 298 298 297 297 297 297 296 296 296 296 295
309 308 308 308 307 307 306 305 304 304 303 303 302 302 302 302 301 301 300 299 297 297 296 295 295 295 295 296 297 297 298 298 297 297 297 297 296 296 296 296 296 296 296
309 309 309 308 307 306 306 305 304 303 303 302 302 301 301 301 300 299 298 297 296 295 295 295 295 295 296 296 297 297 297 297 297 297 297 297 297 297 297 297 297 297 297
309 309 308 307 306 305 305 304 304 303 302 301 301 301 301 300 299 297 296 296 295 295 295 295 295 296 297 297 296 296 296 297 297 297 297 298 298 298 298 298 298 298 297
309 307 306 305 304 304 303 303 303 302 301 300 300 300 299 298 296 296 295 295 294 294 295 295 296 296 296 296 296 297 297 296 297 298 298 298 299 299 299 299 299 298 298
308 306 304 303 303 303 303 302 302 301 300 300 300 299 297 296 295 295 294 294 294 295 295 295 295 294 294 295 296 297 297 297 298 298 299 299 299 299 300 301 301 302 302
305 304 303 303 302 302 301 301 301 300 300 299 298 297 296 295 295 294 294 294 294 294 295 295 294 294 294 295 296 297 298 298 298 298 298 298 298 299 298 299 300 300 301
303 302 302 302 302 301 301 300 300 300 299 298 297 296 295 295 294 294 294 294 294 295 294 294 294 294 294 295 296 296 298 297 297 298 298 298 298 298 299 300 300 300 300
302 301 301 301 301 301 300 299 299 299 298 297 297 295 294 294 294 293 293 293 294 293 293 293 294 294 294 295 295 296 297 297 297 297 297 297 297 299 299 300 303 302 302
301 301 301 301 300 300 300 299 299 298 297 297 295 294 294 294 293 293 293 294 293 293 293 293 293 294 295 295 295 296 297 297 297 296 296 295 298 298 299 301 301 304 302
301 301 301 300 300 300 299 298 298 297 297 296 295 294 294 293 293 293 294 293 293 293 293 293 293 294 294 296 295 296 296 296 295 295 295 295 297 298 299 299 301 300 300
300 300 300 300 300 300 299 298 298 297 296 295 294 294 294 293 293 293 293 293 292 293 293 293 294 294 295 295 294 295 295 295 295 295 294 294 297 298 298 298 299 298 299
300 300 300 300 300 300 299 298 298 296 295 295 294 294 293 292 293 293 292 292 293 293 293 293 295 294 295 294 294 294 294 294 294 293 293 294 297 298 298 299 297 298 299
300 300 300 300 300 299 299 298 297 296 295 295 294 294 293 292 292 292 292 292 293 293 293 294 294 294 295 293 293 292 292 292 292 292 293 295 297 298 299 299 299 298 298
301 300 300 300 300 299 299 298 297 295 295 294 294 293 292 292 291 291 292 293 292 293 293 294 293 293 294 293 294 293 292 292 291 292 292 295 296 297 298 297 297 298 297
301 300 300 300 300 299 298 298 296 295 294 294 294 293 292 291 291 292 292 292 292 293 293 293 293 293 293 293 294 292 291 291 291 291 291 292 294 295 295 296 298 297 297
Wind_Speed
17 18 17 17 16 14 13 12 12 12 11 9 8 6 6 6 6 6 6 7 7 9 10 12 15 17 19 21 22 23 26 27 21 21 22 23 24 14 15 21 18 16 17
18 20 19 18 17 15 13 13 12 13 11 9 8 6 6 8 8 11 11 11 11 12 14 15 17 18 20 20 21 23 25 22 18 19 22 18 21 14 7 11 16 22 21
19 20 20 19 17 15 14 13 13 13 12 10 10 11 10 14 14 14 12 11 14 16 17 17 18 18 19 22 25 22 21 21 20 17 15 13 11 23 24 20 19 18 21
16 18 19 19 18 16 14 14 13 13 13 13 13 13 11 11 10 10 11 12 14 16 15 16 18 21 21 21 21 19 19 21 23 21 19 21 26 28 29 27 24 26 27
12 17 18 17 15 14 14 14 14 14 15 14 16 15 14 14 13 13 13 13 12 13 14 16 17 19 20 22 23 23 21 21 23 24 24 25 26 26 30 33 30 28 27
8 13 12 13 13 13 14 15 14 15 15 16 15 17 18 16 15 15 14 14 14 15 15 16 18 21 24 24 24 24 23 24 24 26 26 27 28 28 28 31 32 31 30
9 11 11 10 10 12 13 15 15 15 14 15 16 15 16 16 15 14 14 14 16 16 17 20 24 25 24 26 26 27 27 26 27 27 28 29 30 29 30 31 35 33 33
10 8 6 5 6 8 9 10 11 12 12 14 14 13 13 13 11 12 13 15 17 19 21 24 23 23 24 25 26 27 28 27 27 29 29 30 30 29 29 30 30 33 34
11 11 9 7 6 4 1 3 6 8 9 9 9 9 10 11 12 14 14 16 18 21 22 24 25 25 25 25 26 29 27 27 27 28 27 27 29 28 29 29 28 28 32
11 10 9 9 7 6 4 3 3 3 7 9 8 9 10 12 13 15 17 19 22 22 24 25 25 26 26 26 26 29 28 27 27 28 27 28 29 29 29 31 32 31 31
8 8 7 6 6 5 5 5 5 5 6 7 8 10 11 13 15 17 19 20 22 24 25 26 27 27 28 27 27 27 27 28 28 28 29 32 33 36 37 35 35 33 32
6 5 4 4 5 7 8 9 9 8 9 10 12 12 14 15 17 19 21 22 24 24 26 26 27 28 28 28 27 27 27 29 30 30 30 30 31 33 30 31 32 32 31
3 2 4 7 9 10 11 12 12 12 12 12 12 13 15 17 18 21 22 23 24 25 26 26 27 28 28 27 26 27 29 29 30 32 33 32 31 33 34 35 35 37 38
1 3 7 9 12 13 13 14 15 13 13 12 13 15 17 19 21 21 22 24 24 26 26 26 27 27 27 27 28 30 30 30 32 34 35 37 36 38 38 40 40 40 41
3 5 9 12 14 15 15 15 13 11 10 12 14 17 19 20 21 22 23 24 25 26 26 27 26 26 27 29 28 29 33 35 37 38 38 39 40 38 38 40 42 42 43
5 9 11 13 14 15 14 13 10 10 12 15 18 19 20 21 22 23 24 25 26 26 26 26 28 31 31 28 28 30 34 35 36 38 37 37 35 37 37 37 39 41 43
7 10 12 13 14 14 11 10 11 12 15 17 18 19 20 22 23 24 25 26 27 27 26 27 30 31 33 29 29 29 32 33 33 34 34 35 35 33 40 43 42 43 41
8 10 12 13 13 11 9 10 12 14 16 17 19 20 21 23 24 25 26 26 26 25 26 29 29 32 34 29 28 29 32 30 30 29 31 34 38 38 40 39 44 41 37
8 10 12 12 11 10 11 12 14 15 16 18 19 21 22 24 24 26 27 26 25 28 30 29 29 33 31 26 27 26 30 28 31 33 29 36 36 31 32 35 38 42 44
9 11 12 12 12 12 13 14 15 16 17 19 20 21 22 23 25 26 26 24 27 30 30 31 31 27 26 26 23 26 29 28 31 34 35 39 30 25 26 27 27 23 26
11 12 12 13 13 14 14 16 16 17 18 19 20 21 22 24 24 24 23 28 29 28 30 29 26 26 25 25 28 25 25 30 32 35 36 39 30 19 20 17 13 7 9
12 13 14 14 14 15 16 16 17 18 18 19 20 21 22 23 23 23 26 27 27 29 29 27 28 28 27 26 22 23 27 30 30 31 32 34 28 18 15 11 10 6 8
12 13 14 15 15 15 16 18 18 17 18 19 20 22 22 22 22 23 26 26 27 27 27 28 31 29 26 28 19 24 28 27 27 28 28 29 19 16 12 9 8 6 6
13 14 15 16 17 16 17 17 17 17 17 19 21 21 22 22 22 25 23 26 28 27 27 30 29 28 26 26 26 30 31 30 29 27 30 16 16 9 9 7 6 8 10
14 16 17 18 19 18 18 16 16 16 18 19 20 21 20 22 25 25 23 26 26 22 25 26 25 28 27 26 24 26 29 27 25 26 23 12 10 8 8 8 10 13 19
18 18 18 18 19 18 16 15 15 16 18 19 19 20 21 23 26 27 29 27 23 21 20 21 21 23 22 24 26 27 26 24 20 21 18 14 10 10 9 9 10 15 16
Wind_Direction
212 201 196 190 186 184 186 186 183 183 182 180 188 194 205 221 227 244 254 275 281 306 321 322 326 326 327 327 330 327 324 322 316 313 307 302 317 307 290 287 284 287 287
213 201 198 193 193 190 191 195 195 194 197 197 206 216 235 236 246 251 270 276 287 293 304 309 314 319 316 318 319 318 316 311 312 306 308 310 306 308 300 284 278 285 279
214 202 201 199 195 197 198 201 206 207 208 214 220 230 234 239 260 266 269 273 281 291 296 301 306 308 309 312 315 312 303 301 300 297 290 304 292 302 287 291 283 276 272
216 204 203 202 203 201 205 207 213 218 222 228 233 244 246 259 267 257 255 257 277 283 286 294 301 305 306 304 303 301 293 291 291 292 283 275 278 286 291 284 274 272 273
209 201 199 203 204 206 209 214 219 224 229 230 246 246 253 258 266 261 267 271 272 277 281 290 295 299 299 297 294 294 292 285 282 281 282 279 278 275 278 283 282 278 273
173 184 186 192 200 205 212 220 223 231 236 245 245 256 256 260 263 266 271 276 276 280 285 290 291 294 294 294 290 286 284 283 280 278 276 274 273 275 275 279 280 278 276
133 161 173 186 197 210 225 234 241 242 248 252 257 255 261 261 262 267 270 276 282 286 288 292 294 294 293 292 292 289 286 283 280 278 276 272 270 271 272 274 278 279 279
100 130 161 185 210 228 240 247 252 259 257 253 254 255 257 264 262 271 276 283 288 291 292 295 294 293 293 291 289 286 284 283 280 278 275 274 271 270 269 270 276 282 280
90 92 93 93 88 92 153 249 256 253 247 256 255 257 259 270 276 280 286 290 292 294 294 293 296 294 293 292 289 285 285 283 280 278 276 273 272 271 269 269 269 273 283
92 88 84 80 74 64 44 1 322 276 273 263 258 256 267 277 284 291 293 295 297 297 295 296 295 294 293 292 290 287 286 283 280 279 278 275 274 271 268 267 267 266 274
101 94 84 67 48 27 355 329 309 288 270 271 271 281 287 288 290 294 297 298 297 297 296 295 294 293 292 291 289 287 284 282 281 278 277 275 274 273 272 269 269 268 270
123 108 80 40 2 344 334 322 307 294 283 284 288 291 291 296 298 298 298 297 296 296 296 296 295 294 294 292 289 286 284 281 280 281 279 275 273 275 273 265 265 261 259
135 76 2 350 342 333 321 313 304 294 287 291 292 293 294 298 298 298 298 299 300 300 299 298 296 295 293 291 289 286 284 282 280 279 276 278 275 269 266 267 264 263 264
219 329 335 332 328 324 317 311 305 295 286 291 295 298 301 299 300 301 301 302 302 301 300 298 296 295 295 291 287 287 288 284 281 279 281 282 281 279 279 270 263 262 259
267 324 330 331 328 324 317 314 304 291 290 292 299 301 300 302 303 302 303 303 302 301 301 300 299 295 291 288 289 288 289 288 287 289 290 289 286 274 271 268 265 259 259
320 329 331 327 324 322 318 310 305 298 296 301 301 301 304 306 306 306 307 305 304 303 301 300 296 297 302 297 292 289 288 289 291 292 291 290 286 281 280 275 272 269 266
319 331 328 324 318 313 308 304 300 301 302 303 305 307 308 308 308 308 307 305 305 304 302 299 299 302 304 299 296 293 293 293 293 295 294 297 295 285 283 284 281 270 267
327 325 321 319 313 311 302 298 301 303 304 306 309 310 309 308 309 308 307 306 306 304 302 303 305 301 302 299 297 298 298 296 297 299 297 300 295 289 290 287 284 280 275
327 319 319 316 314 306 300 300 303 305 307 310 310 309 310 310 309 308 308 308 304 303 311 307 305 304 305 305 305 300 301 302 304 299 303 308 299 299 295 291 292 273 265
321 318 319 316 311 306 299 301 305 307 309 309 308 310 310 309 309 309 308 308 306 306 311 313 312 313 313 314 308 306 303 306 310 312 307 314 305 305 308 309 304 277 246
327 321 319 313 309 305 301 301 306 309 308 309 310 311 311 311 311 311 310 309 309 307 318 315 316 321 320 313 315 307 311 312 314 311 310 316 315 304 307 315 324 310 265
329 324 318 313 309 306 303 303 306 308 308 311 311 312 312 313 314 312 310 310 312 315 318 320 326 329 327 317 319 314 317 315 314 310 311 313 312 306 303 307 310 306 244
327 326 319 312 309 307 303 300 305 308 310 312 313 314 315 316 315 312 315 318 319 320 318 322 326 324 326 325 324 324 321 315 315 312 311 307 308 303 307 304 310 313 282
320 321 323 319 314 309 304 302 304 306 309 314 315 316 317 316 314 317 324 320 322 319 320 323 324 324 325 330 338 331 324 322 321 320 319 310 315 306 301 315 313 304 304
314 315 315 316 317 314 307 304 301 305 312 314 317 317 317 316 317 329 325 321 320 319 319 321 324 326 324 328 325 329 326 327 326 321 327 320 330 318 332 322 326 320 330
311 309 308 310 315 314 309 303 301 308 313 314 318 317 316 317 331 330 325 323 326 323 323 325 321 324 324 325 324 326 331 327 327 322 334 333 316 312 321 329 341 326 331